[[{"header":{"parameterUnit":"m.s-1","parameterCategory":1,"la1":30.2991,"la2":30.254,"lo1":-89.0895,"lo2":-89.0444,"dy":0.0017,"dx":0.0017,"nx":28,"ny":28,"refTime":"2023-04-23T21:00:00:Z","depth":0,"parameterNumber":2,"parameterNumberName":"U-component_of_WINDS"},"data":[0,0,0,0,0,0,0,0,0,0,0,0,0,0,0,0,0,0,0,0,0,0,0,0,0,0,0,0,0,0,0,0,0,0,0,0,0,0,0,0,0,0,0,0,0,0,0,0,0,0,0,0,0,0,0,0,0,0,-2.9729,-2.9729,0,-2.9694,-2.9693,-2.9693,-2.9587,-2.9584,-2.9582,-2.958,-2.9547,-2.9549,-2.955,0,0,0,0,0,0,0,0,0,0,0,0,0,-2.9708,-2.9709,-2.9729,-2.9729,-2.9728,-2.9694,-2.9693,-2.9693,-2.9587,-2.9584,-2.9581,-2.9579,-2.9547,-2.9549,-2.955,0,0,0,0,0,0,0,0,0,0,0,0,0,-2.97,-2.9709,-2.9729,-2.9671,-2.9666,-2.9694,-2.9693,-2.9693,-2.9588,-2.9584,-2.9581,-2.9577,-2.9546,-2.9548,-2.955,-2.9633,0,0,-2.9557,-2.9557,0,0,0,0,0,0,0,0,-2.97,-2.97,-2.968,-2.9675,-2.9669,-2.9641,-2.9674,-2.9673,-2.9589,-2.9617,-2.958,-2.9576,-2.9582,-2.9581,-2.9582,-2.9632,-2.963,-2.9557,-2.9558,-2.9559,-2.9559,0,0,0,0,0,0,0,-2.9701,-2.9701,-2.9715,-2.968,-2.9673,-2.9648,-2.9643,-2.9673,-2.962,-2.9615,-2.9607,-2.9604,-2.9578,-2.958,-2.958,-2.963,-2.9557,-2.9558,-2.956,-2.956,-2.9747,-2.9751,0,0,0,0,0,0,-2.9709,-2.9703,-2.9716,-2.9714,-2.9676,-2.9651,-2.9645,-2.9654,-2.9619,-2.961,-2.9607,-2.9599,-2.9578,-2.9578,-2.9579,-2.9675,-2.9559,-2.9561,-2.9562,-2.9744,-2.9748,-2.9752,0,0,0,0,0,0,-2.9709,-2.9711,-2.9718,-2.9706,-2.9705,-2.9655,-2.9665,-2.9655,-2.9657,-2.9613,-2.9604,-2.9619,-2.9576,-2.9576,-2.962,-2.9672,-2.9562,-2.9563,-2.9739,-2.9745,-2.975,-2.9867,0,0,0,0,0,0,-2.9709,-2.9712,-2.9743,-2.9708,-2.9706,-2.976,-2.9668,-2.9657,-2.966,-2.9649,-2.9622,-2.9614,-2.9573,-2.9618,-2.9623,-2.9673,-2.9565,-2.9734,-2.9742,-2.9748,-2.9859,-2.9876,-2.9891,0,0,0,0,0,-2.9709,-2.9778,-2.9745,-2.9747,-2.9743,-2.9763,-2.9762,-2.9712,-2.9665,-2.9695,-2.9667,-2.9615,-2.9665,-2.9624,-2.9628,-2.968,-2.9731,-2.974,-2.9748,-2.9851,-2.9873,-2.9891,0,0,0,0,0,0,-2.9821,-2.9772,-2.9735,-2.9794,-2.9783,-2.9745,-2.9782,-2.9736,-2.974,-2.973,-2.9669,-2.9664,-2.9718,-2.9702,-2.9657,-2.9758,-2.9689,-2.9699,-2.9767,-2.9787,-2.9803,-2.9806,-2.9567,0,0,0,0,0,-2.9853,-2.9872,-2.9828,-2.9885,-2.9881,-2.9833,-2.984,-2.9802,-2.9789,-2.9784,-2.9759,-2.975,-2.9763,-2.9774,-2.9784,-2.9855,-2.9848,-2.9892,-2.9909,-2.9922,-2.9932,-2.997,-2.999,-2.978,-2.978,-2.978,0,0,-2.9919,-2.9894,-2.991,-2.9907,-2.9894,-2.9917,-2.983,-2.9857,-2.9874,-2.9788,-2.9829,-2.9811,-2.9796,-2.9855,-2.9879,-2.9844,-2.9989,-2.9933,-2.9944,-2.9947,-2.9981,-3.0001,-3.0019,-2.9786,-2.9785,-2.9784,0,0,-3.0051,-3.0033,-3.0079,-3.0067,-3.0048,-3.0016,-3.0027,-2.9995,-2.9979,-3.0018,-2.9955,-2.9974,-2.9999,-2.9991,-2.999,-3.0119,-3.0071,-3.0123,-3.021,-3.0248,-3.0264,-3.0279,-3.0327,-3.0344,-3.0133,-3.0133,-3.0133,0,-3.0136,-3.0166,-3.0108,-3.014,-3.0141,-3.0063,-3.011,-3.0102,-3.0088,-3.0091,-3.0051,-3.008,-3.0064,-3.0121,-3.0152,-3.0153,-3.0166,-3.0128,-3.0266,-3.028,-3.0293,-3.0338,-3.0356,-3.014,-3.0139,-3.0138,-3.0138,0,-3.0272,-3.0294,-3.0333,-3.0321,-3.0326,-3.0365,-3.0315,-3.0327,-3.0288,-3.0261,-3.0302,-3.028,-3.0285,-3.0295,-3.0258,-3.0347,-3.0326,-3.0277,-3.0207,-3.0321,-3.0362,-3.0378,-3.0149,-3.0147,-3.0145,-3.0143,0,0,-3.0476,-3.043,-3.0446,-3.044,-3.0412,-3.0429,-3.0465,-3.0468,-3.0481,-3.0473,-3.0503,-3.0525,-3.0479,-3.0479,-3.044,-3.0473,-3.0578,-3.042,-3.0419,-3.0452,-3.0677,-3.0716,-3.0737,-3.0545,-3.0548,-3.0551,-3.0679,0,-3.0603,-3.0661,-3.061,-3.0678,-3.0698,-3.0624,-3.0655,-3.0643,-3.0617,-3.0632,-3.0604,-3.0621,-3.0558,-3.0558,-3.0587,-3.056,-3.0623,-3.0549,-3.0575,-3.0577,-3.0584,-3.0758,-3.0799,-3.0921,-3.0694,-3.0697,-3.0699,0,-3.0759,-3.0758,-3.0828,-3.0796,-3.0803,-3.0832,-3.0831,-3.0845,-3.083,-3.0809,-3.0808,-3.076,-3.0794,-3.0724,-3.0771,-3.0722,-3.0729,-3.0717,-3.0721,-3.0724,-3.0647,-3.0768,-3.0958,-3.0978,-3.0723,-3.0721,-3.072,0,-3.0904,-3.0919,-3.0963,-3.096,-3.0924,-3.0946,-3.0932,-3.0913,-3.0918,-3.0918,-3.0921,-3.0925,-3.0928,-3.0932,-3.0887,-3.084,-3.0941,-3.0867,-3.0927,-3.0929,-3.0954,-3.0954,-3.1151,-3.0955,-3.0954,-3.0954,-3.0954,0,-3.1052,-3.1099,-3.1028,-3.1056,-3.1106,-3.1046,-3.1098,-3.1076,-3.106,-3.1083,-3.1018,-3.1042,-3.0979,-3.0997,-3.0962,-3.1007,-3.1009,-3.0994,-3.0985,-3.1001,-3.1004,-3.1007,-3.0999,-3.0959,-3.0958,-3.0957,-3.0956,0,-3.1224,-3.1178,-3.1222,-3.1183,-3.1174,-3.1213,-3.1181,-3.1206,-3.1175,-3.1205,-3.1208,-3.1161,-3.1178,-3.1133,-3.1143,-3.1119,-3.1186,-3.1161,-3.1191,-3.1185,-3.1249,-3.1244,-3.1458,-3.1484,-3.1269,-3.1271,-3.1272,0,-3.1323,-3.1357,-3.1322,-3.1332,-3.1321,-3.1338,-3.1343,-3.1285,-3.1293,-3.1278,-3.1305,-3.1316,-3.1322,-3.1353,-3.132,-3.1328,-3.1305,-3.1379,-3.1306,-3.1322,-3.1309,-3.1309,-3.1313,-3.1396,-3.1398,-3.14,-3.1402,0,-3.1505,-3.148,-3.1489,-3.149,-3.1497,-3.1495,-3.1489,-3.1501,-3.144,-3.1452,-3.1468,-3.1473,-3.1482,-3.1495,-3.1495,-3.1482,-3.1434,-3.1425,-3.144,-3.1458,-3.1475,-3.1469,-3.1235,-3.1421,-3.1419,-3.1418,-3.1417,-3.1416,-3.1645,-3.1672,-3.1651,-3.1663,-3.1652,-3.1647,-3.1669,-3.164,-3.1652,-3.1654,-3.162,-3.1643,-3.1627,-3.1622,-3.1614,-3.1633,-3.1599,-3.162,-3.1626,-3.1632,-3.1644,-3.147,-3.1632,-3.1631,-3.1631,-3.163,-3.163,0,-3.1825,-3.1807,-3.1819,-3.1812,-3.1821,-3.1771,-3.1762,-3.1774,-3.1795,-3.1783,-3.179,-3.1809,-3.182,-3.1788,-3.1795,-3.1817,-3.1794,-3.1821,-3.182,-3.1818,-3.1673,-3.166,-3.1839,-3.1839,-3.1839,-3.1839,-3.1838,-3.1838,-3.192,-3.1963,-3.1936,-3.1974,-3.1956,-3.1977,-3.1977,-3.1973,-3.1963,-3.1986,-3.1995,-3.1973,-3.1954,-3.1959,-3.1968,-3.1958,-3.1965,-3.2,-3.1983,-3.1849,-3.1828,-3.1809,-3.1797,-3.2001,-3.2002,-3.2127,-3.2129,-3.213]},{"header":{"parameterUnit":"m.s-1","parameterCategory":1,"la1":30.2991,"la2":30.254,"lo1":-89.0895,"lo2":-89.0444,"dy":0.0017,"dx":0.0017,"nx":28,"ny":28,"refTime":"2023-04-23T21:00:00:Z","depth":0,"parameterNumber":3,"parameterNumberName":"V-component_of_WINDS"},"data":[0,0,0,0,0,0,0,0,0,0,0,0,0,0,0,0,0,0,0,0,0,0,0,0,0,0,0,0,0,0,0,0,0,0,0,0,0,0,0,0,0,0,0,0,0,0,0,0,0,0,0,0,0,0,0,0,0,0,-3.9037,-3.9036,0,-3.9013,-3.9013,-3.9012,-3.8958,-3.8956,-3.8955,-3.8954,-3.8931,-3.8932,-3.8932,0,0,0,0,0,0,0,0,0,0,0,0,0,-3.9035,-3.9035,-3.9037,-3.9036,-3.9036,-3.9013,-3.9013,-3.9012,-3.8958,-3.8956,-3.8955,-3.8954,-3.8931,-3.8932,-3.8932,0,0,0,0,0,0,0,0,0,0,0,0,0,-3.9026,-3.9035,-3.9037,-3.9006,-3.9003,-3.9013,-3.9013,-3.9012,-3.8958,-3.8956,-3.8955,-3.8953,-3.8931,-3.8932,-3.8932,-3.8971,0,0,-3.8934,-3.8935,0,0,0,0,0,0,0,0,-3.9027,-3.9026,-3.9011,-3.9008,-3.9005,-3.8986,-3.9004,-3.8998,-3.8958,-3.8975,-3.8954,-3.8952,-3.8951,-3.895,-3.8949,-3.897,-3.8969,-3.8934,-3.8935,-3.8935,-3.8935,0,0,0,0,0,0,0,-3.9027,-3.9027,-3.9027,-3.9011,-3.9007,-3.8994,-3.899,-3.9002,-3.8973,-3.8974,-3.897,-3.8967,-3.8949,-3.8949,-3.8948,-3.8968,-3.8934,-3.8935,-3.8935,-3.8936,-3.9018,-3.902,0,0,0,0,0,0,-3.9032,-3.9028,-3.9028,-3.9027,-3.9012,-3.8995,-3.8991,-3.8994,-3.8973,-3.8968,-3.8969,-3.8965,-3.8948,-3.8948,-3.8947,-3.899,-3.8935,-3.8936,-3.8936,-3.9016,-3.9019,-3.902,0,0,0,0,0,0,-3.9032,-3.9033,-3.9029,-3.9026,-3.9025,-3.8997,-3.9,-3.8995,-3.8994,-3.8969,-3.8964,-3.8974,-3.8947,-3.8946,-3.8965,-3.8989,-3.8936,-3.8937,-3.9014,-3.9017,-3.9019,-3.9077,0,0,0,0,0,0,-3.9033,-3.9033,-3.9047,-3.9027,-3.9025,-3.9047,-3.9002,-3.8995,-3.8995,-3.899,-3.8972,-3.8968,-3.8946,-3.8964,-3.8966,-3.8989,-3.8937,-3.9012,-3.9015,-3.9019,-3.9073,-3.9082,-3.9089,0,0,0,0,0,-3.9033,-3.9065,-3.9048,-3.9049,-3.9042,-3.9048,-3.9047,-3.9021,-3.8998,-3.9012,-3.8995,-3.8969,-3.8986,-3.8967,-3.8968,-3.8991,-3.901,-3.9014,-3.9018,-3.907,-3.908,-3.9089,0,0,0,0,0,0,-3.909,-3.9062,-3.9043,-3.9069,-3.9062,-3.9039,-3.9056,-3.9033,-3.9032,-3.9027,-3.8994,-3.8991,-3.9014,-3.9004,-3.8983,-3.9027,-3.8994,-3.8998,-3.9032,-3.9042,-3.905,-3.9051,-3.8938,0,0,0,0,0,-3.9105,-3.9112,-3.9088,-3.9114,-3.9111,-3.9084,-3.9086,-3.9066,-3.9057,-3.9054,-3.9039,-3.9031,-3.9035,-3.9038,-3.904,-3.9072,-3.9067,-3.9088,-3.9096,-3.9103,-3.9107,-3.9123,-3.9132,-3.9034,-3.9034,-3.9034,0,0,-3.9137,-3.9123,-3.913,-3.9125,-3.9116,-3.9125,-3.9082,-3.9093,-3.9099,-3.9055,-3.9072,-3.9061,-3.905,-3.9075,-3.9086,-3.9068,-3.9133,-3.9108,-3.9113,-3.9114,-3.9128,-3.9137,-3.9145,-3.9036,-3.9036,-3.9035,0,0,-3.92,-3.9191,-3.921,-3.9203,-3.9191,-3.9173,-3.9178,-3.9159,-3.915,-3.9165,-3.9133,-3.914,-3.9147,-3.914,-3.9138,-3.9198,-3.9173,-3.92,-3.9241,-3.9257,-3.9264,-3.9271,-3.9292,-3.93,-3.9204,-3.9205,-3.9205,0,-3.9242,-3.9253,-3.9224,-3.9237,-3.9235,-3.9196,-3.9216,-3.921,-3.92,-3.9199,-3.918,-3.9188,-3.9178,-3.9201,-3.9215,-3.9215,-3.9219,-3.9202,-3.9266,-3.9272,-3.9278,-3.9297,-3.9306,-3.9208,-3.9207,-3.9207,-3.9207,0,-3.9305,-3.9313,-3.9331,-3.9321,-3.9321,-3.9338,-3.9311,-3.9315,-3.9296,-3.928,-3.9297,-3.9283,-3.9282,-3.9286,-3.9267,-3.9306,-3.9295,-3.9271,-3.9237,-3.9291,-3.9309,-3.9316,-3.9212,-3.9211,-3.921,-3.9209,0,0,-3.9403,-3.9376,-3.9383,-3.9378,-3.9362,-3.9367,-3.9382,-3.938,-3.9384,-3.9378,-3.9389,-3.9396,-3.9374,-3.9371,-3.9351,-3.9365,-3.9413,-3.9339,-3.9338,-3.9353,-3.9455,-3.9473,-3.9482,-3.9396,-3.9398,-3.9399,-3.9455,0,-3.9462,-3.9485,-3.9459,-3.9487,-3.9494,-3.9457,-3.947,-3.9461,-3.9447,-3.9451,-3.9435,-3.944,-3.9411,-3.9409,-3.9421,-3.9405,-3.9433,-3.94,-3.9406,-3.9407,-3.941,-3.9491,-3.951,-3.9564,-3.9462,-3.9463,-3.9464,0,-3.9533,-3.953,-3.9559,-3.954,-3.9542,-3.9554,-3.955,-3.9554,-3.9544,-3.9532,-3.953,-3.9505,-3.9518,-3.9485,-3.9503,-3.9481,-3.9482,-3.9475,-3.9476,-3.9475,-3.9439,-3.9492,-3.9581,-3.9589,-3.9475,-3.9474,-3.9474,0,-3.9601,-3.9604,-3.9622,-3.9619,-3.9597,-3.9606,-3.9598,-3.9586,-3.9586,-3.9583,-3.9582,-3.9581,-3.958,-3.9579,-3.9555,-3.9533,-3.9575,-3.954,-3.9566,-3.9567,-3.9576,-3.9576,-3.9666,-3.9578,-3.9578,-3.9578,-3.9578,0,-3.9669,-3.9689,-3.9652,-3.9663,-3.9683,-3.9653,-3.9674,-3.9662,-3.9651,-3.9659,-3.9627,-3.9636,-3.9603,-3.9608,-3.9589,-3.9606,-3.9606,-3.9597,-3.9592,-3.96,-3.9601,-3.96,-3.9595,-3.958,-3.958,-3.9579,-3.9579,0,-3.9749,-3.9725,-3.9742,-3.972,-3.9715,-3.9731,-3.9712,-3.9721,-3.9705,-3.9715,-3.9716,-3.969,-3.9694,-3.967,-3.967,-3.9657,-3.9683,-3.9672,-3.9687,-3.9683,-3.971,-3.9707,-3.9802,-3.9812,-3.9718,-3.9719,-3.972,0,-3.9793,-3.9807,-3.9787,-3.9789,-3.9782,-3.9787,-3.9787,-3.9758,-3.976,-3.9749,-3.9759,-3.976,-3.976,-3.9767,-3.9749,-3.9748,-3.9736,-3.9769,-3.9736,-3.9743,-3.9736,-3.9735,-3.9736,-3.9776,-3.9778,-3.9778,-3.9779,0,-3.9875,-3.9862,-3.9863,-3.9861,-3.9861,-3.9858,-3.9852,-3.9856,-3.9825,-3.9828,-3.9831,-3.9831,-3.983,-3.9831,-3.9827,-3.9818,-3.9794,-3.979,-3.9796,-3.9804,-3.9812,-3.9807,-3.9705,-3.9788,-3.9787,-3.9786,-3.9786,-3.9786,-3.9938,-3.9948,-3.9935,-3.9937,-3.993,-3.9925,-3.9932,-3.9917,-3.9919,-3.9916,-3.9899,-3.9905,-3.9894,-3.9885,-3.9879,-3.9884,-3.9868,-3.9876,-3.9878,-3.9881,-3.9885,-3.9811,-3.9883,-3.9883,-3.9882,-3.9882,-3.9882,0,-4.0017,-4.0007,-4.0009,-4.0002,-4.0004,-3.998,-3.9972,-3.9975,-3.9981,-3.9973,-3.9973,-3.9976,-3.9977,-3.9959,-3.9958,-3.9965,-3.9953,-3.9965,-3.9964,-3.9963,-3.99,-3.9895,-3.9975,-3.9975,-3.9975,-3.9975,-3.9975,-3.9975,-4.0059,-4.0075,-4.0061,-4.0073,-4.0062,-4.0068,-4.0066,-4.0061,-4.0054,-4.0059,-4.006,-4.0048,-4.0035,-4.0033,-4.0033,-4.0027,-4.0028,-4.0044,-4.0035,-3.9976,-3.9967,-3.9959,-3.9953,-4.0044,-4.0045,-4.0097,-4.0097,-4.0098]}]]